Location: La Fredeussais
(48.1780°N, 1.3980°W)
Time: 08:09:57
(UTC+00:00)

X-37B - Visible Passes

Search period start: 30 July 2021 00:00
Search period end: 09 August 2021 00:00
Orbit: 383 x 392 km, 45.0° (Epoch: 01 July)

Date Brightness Start Highest point End Pass type
(mag) Time Alt. Az. Time Alt. Az. Time Alt. Az.
01 Aug 3.1 03:31:59 10° S 03:33:12 12° SSE 03:34:26 10° SE visible
03 Aug 2.5 03:11:51 16° S 03:12:51 18° SSE 03:15:06 10° ESE visible
04 Aug 1.6 03:48:15 13° SW 03:50:45 34° SSE 03:53:42 10° E visible
05 Aug 1.9 02:52:22 25° SSE 02:52:32 25° SSE 02:55:15 10° E visible
06 Aug 3.4 01:56:29 11° ESE 01:56:29 11° ESE 01:56:37 10° ESE visible
06 Aug 1.1 03:28:45 21° SW 03:30:32 42° S 03:33:35 10° E visible
07 Aug 1.8 02:32:54 31° SE 02:32:54 31° SE 02:35:13 10° E visible
07 Aug 1.0 04:05:33 10° WSW 04:08:38 47° S 04:11:44 10° ESE visible
08 Aug 0.9 03:09:23 34° SW 03:10:20 47° S 03:13:26 10° ESE visible
